Regional Weather Roundup
Issued by NWS

Home | Current Version | Previous Version | Text Only | Print | Product List | Glossary Off
Versions: 1 2 3 4 5 6 7 8 9 10 11 12 13 14 15 16 17 18 19 20 21 22 23 24 25 26 27 28 29 30 31 32 33 34 35 36 37 38 39 40 41 42 43 44 45 46 47 48 49 50

000
ASUS45 KCYS 261810
RWRWY

WYOMING REGIONAL WEATHER ROUNDUP
NATIONAL WEATHER SERVICE CHEYENNE WY
1100 AM MST MON JAN 26 2015

NOTE:  "FAIR" INDICATES FEW OR NO CLOUDS BELOW 12,000 FEET
WITH NO SIGNIFICANT WEATHER AND/OR OBSTRUCTIONS TO VISIBILITY.

WYZ001-261900-
YELLOWSTONE NATIONAL PARK

CITY           SKY/WX    TMP DP  RH WIND       PRES   REMARKS
LK YELLOWSTONE   N/A     18  14  84 SE3       30.46F
6HR MIN TEMP:   7; 6HR MAX TEMP:  19;

W YELLOWSTONE  NOT AVBL

$$
WYZ002>013-054>058-071-098>099-261900-
NORTHERN WYOMING

CITY           SKY/WX    TMP DP  RH WIND       PRES   REMARKS
JACKSON        CLOUDY    25  23  93 CALM      30.48S
CODY           FAIR      36  28  75 NE7       30.21R WCI  30
GREYBULL       FAIR      27  22  81 CALM      30.25S
6HR MIN TEMP:  13; 6HR MAX TEMP:  28;

WORLAND        FAIR      28  21  75 CALM      30.24R
6HR MIN TEMP:  12; 6HR MAX TEMP:  30;

SHERIDAN       FAIR      60  33  36 CALM      30.11S
6HR MIN TEMP:  34; 6HR MAX TEMP:  60;

BUFFALO        FAIR      64  28  25 S8        30.17R
6HR MIN TEMP:  44; 6HR MAX TEMP:  64;

GILLETTE         N/A    N/A N/A N/A MISG      30.14R
6HR MIN TEMP:  39; 6HR MAX TEMP:  59;

HULETT           N/A    N/A N/A N/A MISG        N/A
NEWCASTLE      FAIR      54  28  37 NW7       30.16S

$$
WYZ014>020-022>026-101>103-261900-
CENTRAL WYOMING

CITY           SKY/WX    TMP DP  RH WIND       PRES   REMARKS
BIG PINEY      FAIR      31  22  69 CALM      30.44S
6HR MIN TEMP:  14; 6HR MAX TEMP:  32;

PINEDALE       FAIR      32  23  69 CALM      30.44S
DUBOIS         FAIR      50  23  34 MISG      30.35S
LANDER         FAIR      39  26  59 CALM      30.29S
6HR MIN TEMP:  26; 6HR MAX TEMP:  39;

RIVERTON       FAIR      35  25  66 E3        30.31R
6HR MIN TEMP:  23; 6HR MAX TEMP:  37;

CASPER         FAIR      50  27  40 SW22G29   30.27F
6HR MIN TEMP:  39; 6HR MAX TEMP:  50;

DOUGLAS        FAIR      58  27  30 NW15      30.22S
6HR MIN TEMP:  33; 6HR MAX TEMP:  58;


$$
WYZ021-027>030-104>119-261900-
SOUTHERN WYOMING

CITY           SKY/WX    TMP DP  RH WIND       PRES   REMARKS
EVANSTON       FAIR      40  28  62 NE3       30.42S
6HR MIN TEMP:  27; 6HR MAX TEMP:  40;

KEMMERER       FAIR      34  27  75 N7        30.43S WCI  28
FORT BRIDGER   FAIR      48  28  46 W3        30.45S
ROCK SPRINGS   FAIR      43  27  53 VRB3      30.42S
6HR MIN TEMP:  28; 6HR MAX TEMP:  43;

DIXON          FAIR      37  27  66 W5        30.48F WCI  33
RAWLINS        FAIR      46  27  47 MISG      30.41S
6HR MIN TEMP:  30; 6HR MAX TEMP:  46;

SARATOGA       FAIR      46  27  46 S8        30.44S
LARAMIE        FAIR      50  23  34 CALM      30.36F
6HR MIN TEMP:  22; 6HR MAX TEMP:  50;

CHEYENNE       FAIR      62  19  19 NW24G32   30.28S
6HR MIN TEMP:  43; 6HR MAX TEMP:  62;

TORRINGTON     FAIR      56  29  35 W12       30.20S
6HR MIN TEMP:  34; 6HR MAX TEMP:  57;

PINE BLUFFS    FAIR      61  25  25 NW25      30.25R

$$



USA.gov is the U.S. government's official web portal to all federal, state and local government web resources and services.